Location: Codford Saint Peter
(51.1597°N, 2.0531°W)
Time: 05:27:19
(UTC+00:00)

Cosmos 2263 Rocket - Pass Details

Date: 18 September 2020
Orbit: 822 x 849 km, 71.0° (Epoch: 20 October)

Event Time Altitude Azimuth Distance (km) Brightness Sun altitude
Rises 19:31:29 0° 214° (SSW) 3,348 5.5 -12.6°
Reaches altitude 10° 19:33:55 10° 216° (SW) 2,421 4.8 -13.0°
Maximum altitude 19:39:27 75° 302° (WNW) 861 2.4 -13.8°
Drops below altitude 10° 19:45:05 10° 28° (NNE) 2,450 4.5 -14.6°
Sets 19:47:33 0° 30° (NNE) 3,392 5.3 -15.0°
